Location: Eimen
(51.8766°N, 9.7806°E)
Time: 13:32:41
(UTC+00:00)

Cosmos 1190 Rocket - Pass Details

Date: 23 May 2024
Orbit: 754 x 778 km, 74.1° (Epoch: 12 June)

Event Time Altitude Azimuth Distance (km) Brightness Sun altitude
Exits shadow 00:51:11 20° 225° (SW) 1,723 5.3 -14.7°
Maximum altitude 00:54:46 59° 300° (WNW) 896 4.4 -14.4°
Drops below altitude 10° 01:00:01 10° 20° (NNE) 2,340 8.0 -14.1°
Sets 01:02:28 0° 24° (NNE) 3,274 9.3 -13.9°
